Flag for Dominica Weather past 2 weeks in Roseau, Dominica

Now
72 °F

Passing clouds.


Feels Like: 67 °F
Forecast: 78 / 83 °F
Wind: 7 mph from West

Location: Melville Hall Airport

Current Time: Dec 18, 2014 at 2:08:40 AM

Latest Report: Dec 17, 2014 at 11:00 PM


Visibility: N/A

Pressure: 30.01 "Hg

Humidity: 94%

Dew point: 70 °F

Location of RoseauLocation

Historic Weather in Roseau — Graph

°F

Roseau temperature yesterday

Maximum temperature yesterday: 82 °F (at 9:00 AM)
Minimum temperature yesterday: 70 °F (at 6:00 AM)
Average temperature yesterday: 78 °F

Past Weeks' High & Low Weather Summary

 TemperatureHumidityPressure
High86 °F (Dec 8, 1:00 PM)94% (Dec 3, 6:00 AM)30.07 "Hg (Dec 3, 6:00 AM)
Low68 °F (Dec 15, 6:00 AM)62% (Dec 3, 10:00 AM)29.83 "Hg (Dec 3, 3:00 PM)
Average79 °F81%29.94 "Hg
* Reported Dec 3 6:00 AM — Dec 17 11:00 PM, Roseau, Weather by CustomWeather, © 2014

Note: Actual official high and low records may vary slightly from our data, if they occured in-between our weather recording intervals... More about our weather records

Advertising

Roseau weather history for previous 24 hours

 ConditionsComfort  
Time TempWeatherWind HumidityBarometerVisibility
11:00 PM
Dec 17
72 °FPassing clouds.7 mph94%30.01 "HgN/A
10:00 PM73 °FPassing clouds.8 mph89%30.01 "HgN/A
9:00 PM73 °FPassing clouds.6 mph89%30.01 "HgN/A
8:00 PM73 °FPassing clouds.6 mph89%30.01 "HgN/A
7:00 PM75 °FPassing clouds.6 mph89%29.98 "HgN/A
6:00 PM77 °FPassing clouds.3 mph83%29.98 "HgN/A
5:00 PM81 °FPassing clouds.2 mph74%29.95 "HgN/A
4:00 PM81 °FPassing clouds.5 mph74%29.95 "HgN/A
3:00 PM82 °FScattered clouds.6 mph70%29.95 "HgN/A
2:00 PM82 °FScattered clouds.6 mph70%29.95 "HgN/A
1:00 PM82 °FScattered clouds.7 mph70%29.98 "HgN/A
12:00 PM82 °FScattered clouds.5 mph70%30.01 "HgN/A
11:00 AM82 °FScattered clouds.6 mph70%30.04 "HgN/A
10:00 AM82 °FPassing clouds.5 mph70%30.07 "HgN/A
9:00 AM82 °FPassing clouds.3 mph70%30.04 "HgN/A
8:00 AM75 °FPassing clouds.8 mph83%30.04 "HgN/A
7:00 AM70 °FPassing clouds.9 mph94%30.01 "HgN/A
6:00 AM70 °FPassing clouds.9 mph94%30.01 "HgN/A
Weather by CustomWeather, © 2014

See weather overviewHow to use our weather pages